Regional Weather Roundup
Issued by NWS

Home | Current Version | Previous Version | Text Only | Print | Product List | Glossary On
Versions: 1 2 3 4 5 6 7 8 9 10 11 12 13 14 15 16 17 18 19 20 21 22 23 24 25 26 27 28 29 30 31 32 33 34 35 36 37 38 39 40 41 42 43 44 45 46 47 48 49 50
000
ASUS45 KBOU 240507
RWRCO

WEATHER ROUNDUP FOR COLORADO
NATIONAL WEATHER SERVICE DENVER/BOULDER CO
1100 PM MDT THU MAR 23 2017

NOTE: "FAIR" INDICATES FEW OR NO CLOUDS BELOW 12000 FEET WITH NO
SIGNIFICANT WEATHER AND/OR OBSTRUCTIONS TO VISIBILITY.

COZ001>005-013-030-031-240600-
...NORTHWEST COLORADO...

CITY           SKY/WX    TMP DP  RH WIND       PRES   REMARKS
CRAIG          MOCLDY    39  35  86 W10       29.86R
HAYDEN         MOCLDY    41  30  65 W3        29.85R
MEEKER         CLOUDY    41  36  82 SW9       29.86R
MOUNT WERNER   NOT AVBL
STEAMBOAT SPGS MOCLDY    39  33  79 NE8       29.83R
WALDEN         NOT AVBL
$$

COZ006>008-011-240600-
...WEST CENTRAL VALLEYS...

CITY           SKY/WX    TMP DP  RH WIND       PRES   REMARKS
GRAND JUNCTION CLOUDY    45  39  79 N7        29.83R
MONTROSE       CLOUDY    41  38  89 NW7       29.82S
EAGLE          LGT RAIN  42  34  73 NW8       29.83R
RIFLE          CLOUDY    44  37  76 NW13      29.82R
DELTA          CLOUDY    46  36  68 N10       29.78R
NUCLA          CLOUDY    39  36  87 CALM      29.88R
$$

COZ017>023-064>068-240600-
...SOUTHWEST COLORADO...

CITY           SKY/WX    TMP DP  RH WIND       PRES   REMARKS
DURANGO        CLOUDY    35  32  88 W22G31    29.76F WCI  23
CORTEZ         LGT RAIN  38  36  92 W8        29.85S
PAGOSA SPRINGS LGT SNOW  33  33 100 SW12G17   29.75R WCI  24
TELLURIDE      NOT AVBL
WOLF CREEK PAS LGT SNOW  19  19 100 W8        29.79S WCI   9
$$

COZ009-010-012-014-032>034-037-058>063-240600-
...CENTRAL COLORADO...

CITY           SKY/WX    TMP DP  RH WIND       PRES   REMARKS
ASPEN          LGT SNOW  33  32  96 NW5       29.80S FOG     WCI  29
BUENA VISTA    FLURRIES  39  28  64 NW29G41   29.68F
COPPER MTN     HVY SNOW  28  23  80 MISG      29.86S VSB 1/4
BERTHOUD PASS  CLOUDY    21  10  63 MISG      29.89F
COTTONWOOD PAS FLURRIES  36  27  69 W3        29.74F
GUNNISON       FAIR      36  30  79 SW7       29.72F
KREMMLING      LGT RAIN  41  36  81 CALM      29.85R
LEADVILLE      LGT SNOW  28  24  85 N16G25    29.78F FOG     WCI  16
MONARCH PASS   FOG       23  21  93 SW9       29.84F VSB 1/4 WCI  13
SALIDA         CLOUDY    43  26  51 N8G20     29.72F
SUNLIGHT       SNOW      27  27 100 N5        29.91S VSB 1/2 WCI  21
WILKERSON PASS LGT SNOW  28  27  93 NE17G35   29.77F VSB 3/4 WCI  16
$$

COZ069>075-240600-
...SAN LUIS VALLEY/SANGRE DE CRISTO MOUNTAINS...

CITY           SKY/WX    TMP DP  RH WIND       PRES   REMARKS
ALAMOSA        CLOUDY    37  31  78 VRB3      29.62R
LA VETA PASS   NOT AVBL
SAGUACHE       MOCLDY    36  28  75 NW23      29.64R
$$

COZ035-036-038>040-240600-
...NORTHERN COLORADO FRONT RANGE...

CITY           SKY/WX    TMP DP  RH WIND       PRES   REMARKS
DENVER INTL AP LGT RAIN  44  35  70 N26G44    29.75R
DMNS CITY PARK   N/A     43  38  82 N23G31    29.73F
AURORA         LGT RAIN  42  39  92 N24G39    29.73F
FRONT RANGE AP NOT AVBL
ERIE MUNI ARPT RAIN      44  40  85 NE17G31   29.80R
BOULDER MUN AP RAIN      45  41  87 N16G25    29.78R
CENTENNIAL     LGT RAIN  43  37  79 N22G41    29.74R
BROOMFIELD     NOT AVBL
FORT COLLINS   LGT RAIN  43  36  76 N25G32    29.79R
LONGMONT       LGT RAIN  47  43  86 N12G18    29.81S
$$

COZ041-046-047-076>085-087-088-240600-
...PIKES PEAK/PALMER DIVIDE AND SOUTHERN FOOTHILLS...

CITY           SKY/WX    TMP DP  RH WIND       PRES   REMARKS
COLO. SPRINGS  MOCLDY    48  36  63 N48G62    29.60R
A. F. ACADEMY  MIX PCPN  43  37  81 N28G45    29.65R
SCHRIEVER AFB  MOCLDY    46  37  71 N37G59    29.61R
ELLICOTT       LGT RAIN N/A N/A N/A NE48G68   29.57R
FALCON         MOCLDY    42  36  77 N37G54    29.65R
FORT CARSON    FAIR      52  37  58 N47G68    29.56R
LIMON          MOCLDY    49  39  68 N39G49    29.68R
MONUMENT HILL  LGT RAIN  36  36 100 N25G35    29.75R
TRINIDAD       FAIR      45  26  47 SW9       29.49R
$$

COZ042>045-048>051-090-091-240600-
...NORTHEAST COLORADO...

CITY           SKY/WX    TMP DP  RH WIND       PRES   REMARKS
GREELEY ARPT   LGT RAIN  45  36  70 N30G40    29.78R
AKRON          LGT RAIN  46  39  76 N32G44    29.67R
BURLINGTON     FAIR      59  44  57 SE18      29.56F
WRAY           NOT AVBL
STERLING       CLOUDY    46  43  87 N18G29    29.75R
HOLYOKE        CLOUDY    54  45  71 N28G37    29.73R
FORT MORGAN    MOCLDY    47  39  75 N39G48    29.68F
$$

COZ086-089-092>099-240600-
...SOUTHEAST COLORADO...

CITY           SKY/WX    TMP DP  RH WIND       PRES   REMARKS
PUEBLO         FAIR      61  32  33 N47G58    29.47R HAZE
LA JUNTA       FAIR      65  24  21 NE22G35   29.40F
LAMAR          FAIR      59  46  62 E15       29.44F
SPRINGFIELD      N/A     60  25  26 S14       29.47F
$$



USA.gov is the U.S. government's official web portal to all federal, state and local government web resources and services.